time, Switch, Flow(0), Analog(2)
yyyy/mm/dd HH:MM:SS.fff, True=FILTERED|False=TOTAL, L/min, V
2023/06/28 11:00:02.488, True, 4.642, 0.124285
2023/06/28 11:00:02.992, True, 4.643, 0.123445
2023/06/28 11:00:03.496, True, 4.310, 0.123293
2023/06/28 11:00:03.992, True, 4.046, 0.125353
2023/06/28 11:00:04.496, True, 2.985, 0.124971
2023/06/28 11:00:05.000, True, 1.989, 0.123445
2023/06/28 11:00:05.496, True, 2.021, 0.123217
2023/06/28 11:00:06.000, True, 1.990, 0.125429
2023/06/28 11:00:06.504, True, 1.990, 0.123217
2023/06/28 11:00:07.000, True, 2.025, 0.122835
2023/06/28 11:00:07.504, True, 1.987, 0.126421
2023/06/28 11:00:08.007, True, 1.993, 0.124819
2023/06/28 11:00:08.504, True, 2.018, 0.123522
2023/06/28 11:00:09.008, True, 1.993, 0.125734
2023/06/28 11:00:09.512, True, 1.986, 0.123980
2023/06/28 11:00:10.007, True, 1.685, 0.122225
2023/06/28 11:00:10.512, True, 1.990, 0.122530
2023/06/28 11:00:11.016, True, 1.658, 0.123751
2023/06/28 11:00:11.511, True, 2.022, 0.126955
2023/06/28 11:00:12.016, True, 1.990, 0.123903
2023/06/28 11:00:12.520, True, 1.658, 0.125658
2023/06/28 11:00:13.016, True, 2.025, 0.124208
2023/06/28 11:00:13.519, True, 1.987, 0.126421
2023/06/28 11:00:14.024, True, 1.990, 0.124056
2023/06/28 11:00:14.520, True, 2.022, 0.124285
2023/06/28 11:00:15.024, True, 1.990, 0.123217
2023/06/28 11:00:15.528, True, 1.990, 0.124895
2023/06/28 11:00:16.024, True, 2.022, 0.123445
2023/06/28 11:00:16.528, True, 1.991, 0.123980
2023/06/28 11:00:17.024, True, 2.021, 0.123827
2023/06/28 11:00:17.528, True, 1.990, 0.126497
2023/06/28 11:00:18.032, True, 1.991, 0.124285
2023/06/28 11:00:18.528, True, 2.022, 0.124666
2023/06/28 11:00:19.032, True, 1.656, 0.121843
2023/06/28 11:00:19.535, True, 1.991, 0.125505
2023/06/28 11:00:20.032, True, 2.022, 0.125429
2023/06/28 11:00:20.536, True, 1.988, 0.123827
2023/06/28 11:00:21.040, True, 1.992, 0.122759
2023/06/28 11:00:21.536, True, 1.685, 0.125277
2023/06/28 11:00:22.040, True, 1.987, 0.124514
2023/06/28 11:00:22.544, True, 2.321, 0.123217
2023/06/28 11:00:23.040, True, 1.687, 0.125277
2023/06/28 11:00:23.544, True, 1.989, 0.123903
2023/06/28 11:00:24.048, True, 2.318, 0.125887
2023/06/28 11:00:24.552, True, 1.992, 0.122301
2023/06/28 11:00:25.048, True, 2.023, 0.125505
2023/06/28 11:00:25.551, True, 1.986, 0.125048
2023/06/28 11:00:26.056, True, 1.992, 0.122225
2023/06/28 11:00:26.560, True, 1.988, 0.126040
2023/06/28 11:00:27.055, True, 1.688, 0.124361
2023/06/28 11:00:27.560, True, 1.986, 0.125353
2023/06/28 11:00:28.064, True, 1.990, 0.124056
2023/06/28 11:00:28.560, True, 1.684, 0.125658
2023/06/28 11:00:29.064, True, 1.991, 0.124819
2023/06/28 11:00:29.568, True, 1.989, 0.127565
2023/06/28 11:00:30.064, True, 1.687, 0.124514
2023/06/28 11:00:30.568, True, 1.986, 0.123293
2023/06/28 11:00:31.072, True, 1.990, 0.125200
2023/06/28 11:00:31.568, True, 1.685, 0.124208
2023/06/28 11:00:32.072, True, 1.990, 0.125200
2023/06/28 11:00:32.575, True, 1.990, 0.124437
2023/06/28 11:00:33.080, True, 1.660, 0.124971
2023/06/28 11:00:33.575, True, 2.019, 0.127413
2023/06/28 11:00:34.080, True, 1.991, 0.124971
2023/06/28 11:00:34.584, True, 1.988, 0.126116
2023/06/28 11:00:35.080, True, 2.024, 0.125048
2023/06/28 11:00:35.584, True, 1.656, 0.128328
2023/06/28 11:00:36.080, True, 2.022, 0.126268
2023/06/28 11:00:36.584, True, 1.990, 0.127565
2023/06/28 11:00:37.088, True, 1.658, 0.126574
2023/06/28 11:00:37.584, True, 2.022, 0.127184
2023/06/28 11:00:38.088, True, 1.990, 0.127260
2023/06/28 11:00:38.592, True, 1.990, 0.128557
2023/06/28 11:00:39.088, True, 2.021, 0.129931
2023/06/28 11:00:39.592, True, 1.990, 0.129549
2023/06/28 11:00:40.096, True, 1.990, 0.128099
2023/06/28 11:00:40.592, True, 2.022, 0.128481
2023/06/28 11:00:41.096, True, 1.990, 0.129320
2023/06/28 11:00:41.600, True, 2.321, 0.128634
2023/06/28 11:00:42.096, True, 1.685, 0.128786
2023/06/28 11:00:42.600, True, 1.990, 0.129778
2023/06/28 11:00:43.095, True, 2.022, 0.129320
2023/06/28 11:00:43.600, True, 1.989, 0.129931
2023/06/28 11:00:44.104, True, 1.990, 0.131228
2023/06/28 11:00:44.600, True, 2.022, 0.132677
2023/06/28 11:00:45.104, True, 1.659, 0.127718
2023/06/28 11:00:45.608, True, 1.988, 0.130694
2023/06/28 11:00:46.112, True, 1.990, 0.130770
2023/06/28 11:00:46.607, True, 2.361, 0.132601
2023/06/28 11:00:47.112, True, 1.987, 0.131151
2023/06/28 11:00:47.616, True, 1.658, 0.132219
2023/06/28 11:00:48.112, True, 2.021, 0.133059
2023/06/28 11:00:48.616, True, 1.990, 0.133593
2023/06/28 11:00:49.120, True, 1.658, 0.132830
2023/06/28 11:00:49.624, True, 1.989, 0.131075
2023/06/28 11:00:50.119, True, 2.025, 0.131456
2023/06/28 11:00:50.624, True, 1.987, 0.134432
2023/06/28 11:00:51.128, True, 1.992, 0.132982
2023/06/28 11:00:51.624, True, 2.020, 0.134127
2023/06/28 11:00:52.128, True, 1.992, 0.132601
2023/06/28 11:00:52.632, True, 1.988, 0.132372
2023/06/28 11:00:53.128, True, 2.022, 0.131838
2023/06/28 11:00:53.632, True, 1.990, 0.133440
2023/06/28 11:00:54.135, True, 1.989, 0.133364
2023/06/28 11:00:54.632, True, 2.022, 0.132067
2023/06/28 11:00:55.136, True, 1.992, 0.133288
2023/06/28 11:00:55.640, True, 1.987, 0.133822
2023/06/28 11:00:56.144, True, 2.321, 0.131762
2023/06/28 11:00:56.640, True, 2.022, 0.132906
2023/06/28 11:00:57.143, True, 1.989, 0.132372
2023/06/28 11:00:57.648, True, 1.990, 0.134051
2023/06/28 11:00:58.144, True, 2.022, 0.131685
2023/06/28 11:00:58.648, True, 1.990, 0.132372
2023/06/28 11:00:59.152, True, 1.990, 0.133669
2023/06/28 11:00:59.656, True, 1.990, 0.134127
2023/06/28 11:01:00.152, True, 2.022, 0.134890
2023/06/28 11:01:00.656, True, 1.990, 0.133288
2023/06/28 11:01:01.160, True, 1.990, 0.131838
2023/06/28 11:01:01.656, True, 2.022, 0.133898
2023/06/28 11:01:02.160, True, 2.321, 0.132830
2023/06/28 11:01:02.664, True, 1.992, 0.133288
2023/06/28 11:01:03.160, True, 2.019, 0.133974
2023/06/28 11:01:03.664, True, 1.658, 0.135348
2023/06/28 11:01:04.168, True, 1.990, 0.132067
2023/06/28 11:01:04.664, True, 1.686, 0.133288
2023/06/28 11:01:05.168, True, 1.992, 0.134813
2023/06/28 11:01:05.672, True, 1.985, 0.132372
2023/06/28 11:01:06.168, True, 2.022, 0.132143
2023/06/28 11:01:06.672, True, 1.990, 0.132525
2023/06/28 11:01:07.176, True, 1.990, 0.134279
2023/06/28 11:01:07.680, True, 1.990, 0.134432
2023/06/28 11:01:08.176, True, 2.022, 0.135958
2023/06/28 11:01:08.680, True, 1.990, 0.134890
2023/06/28 11:01:09.184, True, 1.989, 0.134585
2023/06/28 11:01:09.679, True, 1.685, 0.131838
2023/06/28 11:01:10.184, True, 1.990, 0.134432
2023/06/28 11:01:10.688, True, 2.321, 0.134737
2023/06/28 11:01:11.184, True, 2.022, 0.133288
2023/06/28 11:01:11.688, True, 1.989, 0.134279
2023/06/28 11:01:12.192, True, 1.990, 0.133822
2023/06/28 11:01:12.688, True, 2.022, 0.132830
2023/06/28 11:01:13.192, True, 1.990, 0.132830
2023/06/28 11:01:13.696, True, 1.991, 0.133898
2023/06/28 11:01:14.192, True, 2.021, 0.134203
2023/06/28 11:01:14.696, True, 2.322, 0.136034
2023/06/28 11:01:15.199, True, 1.658, 0.132448
2023/06/28 11:01:15.696, True, 2.022, 0.133516
2023/06/28 11:01:16.200, True, 1.989, 0.131380
2023/06/28 11:01:16.704, True, 1.990, 0.131838
2023/06/28 11:01:17.200, True, 2.022, 0.133898
2023/06/28 11:01:17.704, True, 1.990, 0.134127
2023/06/28 11:01:18.208, True, 1.990, 0.134356
2023/06/28 11:01:18.712, True, 1.990, 0.134966
2023/06/28 11:01:19.208, True, 2.022, 0.133898
2023/06/28 11:01:19.712, True, 1.990, 0.132677
2023/06/28 11:01:20.216, True, 1.991, 0.134356
2023/06/28 11:01:20.720, True, 1.989, 0.133669
2023/06/28 11:01:21.216, True, 2.022, 0.131533
2023/06/28 11:01:21.720, True, 1.990, 0.134966
2023/06/28 11:01:22.223, True, 1.990, 0.134203
2023/06/28 11:01:22.720, True, 1.685, 0.133822
2023/06/28 11:01:23.224, True, 1.990, 0.133135
2023/06/28 11:01:23.728, True, 1.990, 0.131838
2023/06/28 11:01:24.224, True, 1.685, 0.133822
2023/06/28 11:01:24.728, True, 1.990, 0.134890
2023/06/28 11:01:25.232, True, 2.321, 0.134508
2023/06/28 11:01:25.728, True, 1.685, 0.132982
2023/06/28 11:01:26.232, True, 1.990, 0.134737
2023/06/28 11:01:26.736, True, 1.989, 0.133059
2023/06/28 11:01:27.232, True, 2.022, 0.133745
2023/06/28 11:01:27.736, True, 1.991, 0.134051
2023/06/28 11:01:28.240, True, 1.988, 0.133822
2023/06/28 11:01:28.736, True, 2.022, 0.133059
2023/06/28 11:01:29.240, True, 1.659, 0.133059
2023/06/28 11:01:29.744, True, 1.988, 0.133593
2023/06/28 11:01:30.240, True, 2.022, 0.133440
2023/06/28 11:01:30.744, True, 1.658, 0.134127
2023/06/28 11:01:31.240, True, 2.022, 0.132906
2023/06/28 11:01:31.744, True, 1.659, 0.134356
2023/06/28 11:01:32.248, True, 1.988, 0.134813
2023/06/28 11:01:32.744, True, 2.022, 0.133898
2023/06/28 11:01:33.248, True, 1.989, 0.133059
2023/06/28 11:01:33.752, True, 1.990, 0.135500
2023/06/28 11:01:34.248, True, 2.022, 0.133974
2023/06/28 11:01:34.752, True, 1.990, 0.133211
2023/06/28 11:01:35.256, True, 1.990, 0.135576
2023/06/28 11:01:35.752, True, 2.022, 0.132601
2023/06/28 11:01:36.256, True, 1.989, 0.134356
2023/06/28 11:01:36.760, True, 1.658, 0.133211
2023/06/28 11:01:37.256, True, 2.025, 0.132982
2023/06/28 11:01:37.760, True, 1.986, 0.132982
2023/06/28 11:01:38.264, True, 1.990, 0.132753
2023/06/28 11:01:38.760, True, 2.022, 0.133974
2023/06/28 11:01:39.264, True, 1.989, 0.134356
2023/06/28 11:01:39.760, True, 2.022, 0.133288
2023/06/28 11:01:40.263, True, 1.991, 0.133211
2023/06/28 11:01:40.768, True, 1.990, 0.131533
2023/06/28 11:01:41.272, True, 1.990, 0.134279
2023/06/28 11:01:41.768, True, 1.685, 0.132219
2023/06/28 11:01:42.272, True, 1.988, 0.131914
2023/06/28 11:01:42.776, True, 1.991, 0.132906
2023/06/28 11:01:43.272, True, 2.022, 0.130922
2023/06/28 11:01:43.776, True, 1.988, 0.131151
2023/06/28 11:01:44.280, True, 1.991, 0.132906
2023/06/28 11:01:44.775, True, 1.686, 0.133364
2023/06/28 11:01:45.280, True, 1.989, 0.134279
2023/06/28 11:01:45.784, True, 1.988, 0.134432
2023/06/28 11:01:46.279, True, 2.024, 0.131533
2023/06/28 11:01:46.783, True, 1.658, 0.131762
2023/06/28 11:01:47.288, True, 1.989, 0.133669
2023/06/28 11:01:47.784, True, 2.023, 0.131914
2023/06/28 11:01:48.287, True, 1.990, 0.131685
2023/06/28 11:01:48.792, True, 1.987, 0.131838
2023/06/28 11:01:49.288, True, 1.685, 0.131914
2023/06/28 11:01:49.792, True, 1.990, 0.132067
2023/06/28 11:01:50.296, True, 1.992, 0.130465
2023/06/28 11:01:50.791, True, 2.023, 0.131991
2023/06/28 11:01:51.295, True, 1.986, 0.133822
2023/06/28 11:01:51.800, True, 1.990, 0.132525
2023/06/28 11:01:52.296, True, 1.688, 0.131762
2023/06/28 11:01:52.800, True, 1.989, 0.135119
2023/06/28 11:01:53.304, True, 1.987, 0.135576
2023/06/28 11:01:53.808, True, 1.992, 0.132296
2023/06/28 11:01:54.304, True, 1.682, 0.131685
2023/06/28 11:01:54.808, True, 1.990, 0.132067
2023/06/28 11:01:55.304, True, 1.685, 0.131228
2023/06/28 11:01:55.808, True, 1.989, 0.131609
2023/06/28 11:01:56.312, True, 2.322, 0.132753
2023/06/28 11:01:56.808, True, 2.021, 0.132525
2023/06/28 11:01:57.312, True, 1.659, 0.131304
2023/06/28 11:01:57.816, True, 1.989, 0.132906
2023/06/28 11:01:58.312, True, 2.025, 0.131914
2023/06/28 11:01:58.816, True, 1.987, 0.129931
2023/06/28 11:01:59.320, True, 1.991, 0.132296
2023/06/28 11:01:59.824, True, 1.988, 0.131762
2023/06/28 11:02:00.320, True, 2.022, 0.131380
2023/06/28 11:02:00.824, True, 1.989, 0.130770
2023/06/28 11:02:01.328, True, 1.990, 0.132448
2023/06/28 11:02:01.824, True, 1.685, 0.132448
2023/06/28 11:02:02.328, True, 1.990, 0.131838
2023/06/28 11:02:02.832, True, 1.990, 0.132296
2023/06/28 11:02:03.328, True, 2.021, 0.132982
2023/06/28 11:02:03.832, True, 1.658, 0.129015
2023/06/28 11:02:04.328, True, 2.022, 0.131609
2023/06/28 11:02:04.832, True, 1.990, 0.129320
2023/06/28 11:02:05.336, True, 1.658, 0.131914
2023/06/28 11:02:05.832, True, 2.022, 0.130846
2023/06/28 11:02:06.336, True, 1.990, 0.131685
2023/06/28 11:02:06.840, True, 1.990, 0.131533
2023/06/28 11:02:07.336, True, 2.022, 0.130922
2023/06/28 11:02:07.840, True, 1.990, 0.132601
2023/06/28 11:02:08.344, True, 1.659, 0.132296
2023/06/28 11:02:08.840, True, 2.020, 0.132067
2023/06/28 11:02:09.344, True, 1.990, 0.132982
2023/06/28 11:02:09.848, True, 1.990, 0.131533
2023/06/28 11:02:10.343, True, 2.022, 0.130922
2023/06/28 11:02:10.848, True, 1.989, 0.132448
2023/06/28 11:02:11.352, True, 1.658, 0.132601
2023/06/28 11:02:11.848, True, 2.022, 0.129854
2023/06/28 11:02:12.352, True, 1.992, 0.132372
2023/06/28 11:02:12.856, True, 1.656, 0.131151
2023/06/28 11:02:13.352, True, 2.022, 0.130541
2023/06/28 11:02:13.856, True, 1.990, 0.131609
2023/06/28 11:02:14.359, True, 1.990, 0.131151
2023/06/28 11:02:14.856, True, 2.021, 0.129473
2023/06/28 11:02:15.360, True, 1.990, 0.131914
2023/06/28 11:02:15.864, True, 1.990, 0.131304
2023/06/28 11:02:16.360, True, 2.022, 0.130465
2023/06/28 11:02:16.864, True, 1.989, 0.132372
2023/06/28 11:02:17.368, True, 1.990, 0.131991
2023/06/28 11:02:17.864, True, 2.022, 0.132753
2023/06/28 11:02:18.368, True, 1.989, 0.132448
2023/06/28 11:02:18.872, True, 1.990, 0.131380
2023/06/28 11:02:19.376, True, 1.989, 0.132830
2023/06/28 11:02:19.872, True, 2.022, 0.130999
2023/06/28 11:02:20.376, True, 1.990, 0.129702
2023/06/28 11:02:20.880, True, 1.658, 0.132753
2023/06/28 11:02:21.375, True, 1.685, 0.130922
2023/06/28 11:02:21.880, True, 1.658, 0.130388
2023/06/28 11:02:22.384, True, 1.990, 0.132982
2023/06/28 11:02:22.880, True, 1.685, 0.130617
2023/06/28 11:02:23.384, True, 1.990, 0.130388
2023/06/28 11:02:23.888, True, 1.992, 0.129397
2023/06/28 11:02:24.384, True, 2.019, 0.133211
2023/06/28 11:02:24.888, True, 1.990, 0.131075
2023/06/28 11:02:25.384, True, 2.022, 0.130617
2023/06/28 11:02:25.888, True, 1.990, 0.131991
2023/06/28 11:02:26.392, True, 1.990, 0.129854
2023/06/28 11:02:26.896, True, 1.990, 0.130770
2023/06/28 11:02:27.392, True, 2.022, 0.130159
2023/06/28 11:02:27.895, True, 1.993, 0.129549
2023/06/28 11:02:28.400, True, 1.986, 0.131380
2023/06/28 11:02:28.896, True, 1.685, 0.130007
2023/06/28 11:02:29.400, True, 2.321, 0.129778
2023/06/28 11:02:29.904, True, 1.658, 0.132219
2023/06/28 11:02:30.400, True, 2.022, 0.132219
2023/06/28 11:02:30.904, True, 1.990, 0.130388
2023/06/28 11:02:31.408, True, 1.990, 0.130617
2023/06/28 11:02:31.912, True, 1.658, 0.131304
2023/06/28 11:02:32.408, True, 2.024, 0.130083
2023/06/28 11:02:32.912, True, 1.988, 0.131380
2023/06/28 11:02:33.416, True, 1.990, 0.130083
2023/06/28 11:02:33.912, True, 2.022, 0.129397
2023/06/28 11:02:34.416, True, 1.990, 0.129015
2023/06/28 11:02:34.920, True, 1.990, 0.130465
2023/06/28 11:02:35.416, True, 2.021, 0.131380
2023/06/28 11:02:35.920, True, 2.321, 0.129168
2023/06/28 11:02:36.424, True, 1.658, 0.131456
2023/06/28 11:02:36.927, True, 1.992, 0.130159
2023/06/28 11:02:37.424, True, 2.021, 0.129091
2023/06/28 11:02:37.928, True, 1.989, 0.131228
2023/06/28 11:02:38.432, True, 2.321, 0.129244
2023/06/28 11:02:38.936, True, 1.990, 0.129778
2023/06/28 11:02:39.432, True, 2.021, 0.130770
2023/06/28 11:02:39.936, True, 1.990, 0.130846
2023/06/28 11:02:40.439, True, 1.990, 0.130694
2023/06/28 11:02:40.936, True, 2.022, 0.130236
2023/06/28 11:02:41.440, True, 1.992, 0.131151
2023/06/28 11:02:41.944, True, 1.988, 0.130159
2023/06/28 11:02:42.440, True, 1.685, 0.131228
2023/06/28 11:02:42.944, True, 1.990, 0.131456
2023/06/28 11:02:43.448, True, 1.989, 0.132830
2023/06/28 11:02:43.944, True, 2.022, 0.129854
2023/06/28 11:02:44.448, True, 1.989, 0.130388
2023/06/28 11:02:44.952, True, 1.990, 0.131609
2023/06/28 11:02:45.448, True, 2.022, 0.131228
2023/06/28 11:02:45.951, True, 1.993, 0.129168
2023/06/28 11:02:46.456, True, 1.986, 0.130846
2023/06/28 11:02:46.960, True, 1.990, 0.128557
2023/06/28 11:02:47.456, True, 2.021, 0.130083
2023/06/28 11:02:47.959, True, 1.993, 0.128862
2023/06/28 11:02:48.464, True, 1.989, 0.130465
2023/06/28 11:02:48.959, True, 2.019, 0.128023
2023/06/28 11:02:49.463, True, 1.990, 0.130007
2023/06/28 11:02:49.967, True, 1.990, 0.129625
2023/06/28 11:02:50.463, True, 2.025, 0.129244
2023/06/28 11:02:50.968, True, 1.986, 0.130007
2023/06/28 11:02:51.472, True, 1.990, 0.130159
2023/06/28 11:02:51.968, True, 2.022, 0.128634
2023/06/28 11:02:52.472, True, 1.990, 0.130312
2023/06/28 11:02:52.976, True, 1.657, 0.129778
2023/06/28 11:02:53.480, True, 2.321, 0.130236
2023/06/28 11:02:53.976, True, 1.685, 0.129320
2023/06/28 11:02:54.480, True, 1.990, 0.130770
2023/06/28 11:02:54.984, True, 1.990, 0.129854
2023/06/28 11:02:55.479, True, 2.022, 0.130007
2023/06/28 11:02:55.984, True, 1.990, 0.130159
2023/06/28 11:02:56.488, True, 1.990, 0.128176
2023/06/28 11:02:56.984, True, 2.021, 0.129244
2023/06/28 11:02:57.488, True, 1.991, 0.130007
2023/06/28 11:02:57.992, True, 1.988, 0.128023
2023/06/28 11:02:58.488, True, 2.024, 0.129320
2023/06/28 11:02:58.992, True, 1.656, 0.129320
2023/06/28 11:02:59.495, True, 1.990, 0.129015
2023/06/28 11:02:59.992, True, 2.021, 0.127794
2023/06/28 11:03:00.495, True, 1.990, 0.130236
2023/06/28 11:03:00.000, True, 1.989, 0.130083
2023/06/28 11:03:01.496, True, 2.022, 0.131075
2023/06/28 11:03:01.000, True, 1.990, 0.129473
2023/06/28 11:03:02.504, True, 1.990, 0.130465
2023/06/28 11:03:02.999, True, 2.022, 0.130236
2023/06/28 11:03:03.504, True, 1.658, 0.129091
2023/06/28 11:03:04.008, True, 1.990, 0.128634
2023/06/28 11:03:04.512, True, 1.990, 0.131304
2023/06/28 11:03:05.008, True, 2.021, 0.130007
2023/06/28 11:03:05.511, True, 1.990, 0.128176
2023/06/28 11:03:06.007, True, 2.022, 0.130312
2023/06/28 11:03:06.512, True, 1.990, 0.128786
2023/06/28 11:03:07.015, True, 1.989, 0.129854
2023/06/28 11:03:07.511, True, 2.022, 0.129702
2023/06/28 11:03:08.016, True, 1.990, 0.130694
2023/06/28 11:03:08.520, True, 1.990, 0.126802
2023/06/28 11:03:09.016, True, 1.685, 0.127718
2023/06/28 11:03:09.520, True, 1.990, 0.128634
2023/06/28 11:03:10.024, True, 1.992, 0.129320
2023/06/28 11:03:10.520, True, 2.022, 0.128481
2023/06/28 11:03:11.023, True, 1.987, 0.128328
2023/06/28 11:03:11.528, True, 1.992, 0.128481
2023/06/28 11:03:12.023, True, 2.019, 0.130617
2023/06/28 11:03:12.528, True, 1.992, 0.126268
2023/06/28 11:03:13.032, True, 1.988, 0.129320
2023/06/28 11:03:13.527, True, 2.022, 0.129625
2023/06/28 11:03:14.032, True, 1.992, 0.129015
2023/06/28 11:03:14.536, True, 1.987, 0.130922
2023/06/28 11:03:15.032, True, 2.025, 0.129244
2023/06/28 11:03:15.536, True, 1.989, 0.130617
2023/06/28 11:03:16.040, True, 1.987, 0.129397
2023/06/28 11:03:16.536, True, 2.024, 0.126650
2023/06/28 11:03:17.040, True, 1.991, 0.128634
2023/06/28 11:03:17.544, True, 1.989, 0.129091
2023/06/28 11:03:18.040, True, 2.018, 0.128252
2023/06/28 11:03:18.544, True, 1.990, 0.128176
2023/06/28 11:03:19.048, True, 1.993, 0.130541
2023/06/28 11:03:19.544, True, 2.018, 0.128405
2023/06/28 11:03:20.047, True, 1.992, 0.128939
2023/06/28 11:03:20.552, True, 1.987, 0.130465
2023/06/28 11:03:21.048, True, 2.024, 0.127565
2023/06/28 11:03:21.551, True, 1.657, 0.128328
2023/06/28 11:03:22.056, True, 1.989, 0.128099
2023/06/28 11:03:22.560, True, 1.990, 0.129015
2023/06/28 11:03:23.056, True, 2.022, 0.129473
2023/06/28 11:03:23.560, True, 1.990, 0.128786
2023/06/28 11:03:24.064, True, 1.990, 0.129549
2023/06/28 11:03:24.560, True, 2.022, 0.128862
2023/06/28 11:03:25.064, True, 1.990, 0.129320
2023/06/28 11:03:25.568, True, 1.990, 0.128252
2023/06/28 11:03:26.064, True, 2.022, 0.127871
2023/06/28 11:03:26.568, True, 1.991, 0.128710
2023/06/28 11:03:27.072, True, 1.988, 0.128939
2023/06/28 11:03:27.568, True, 2.022, 0.128786
2023/06/28 11:03:28.072, True, 1.990, 0.129320
2023/06/28 11:03:28.576, True, 1.990, 0.129625
2023/06/28 11:03:29.072, True, 1.684, 0.129854
2023/06/28 11:03:29.576, True, 1.990, 0.126879
2023/06/28 11:03:30.080, True, 1.990, 0.130922
2023/06/28 11:03:30.576, True, 2.022, 0.129244
2023/06/28 11:03:31.080, True, 1.990, 0.127489
2023/06/28 11:03:31.584, True, 1.659, 0.127108
2023/06/28 11:03:32.079, True, 2.021, 0.128099
2023/06/28 11:03:32.584, True, 1.989, 0.127947
2023/06/28 11:03:33.088, True, 1.990, 0.129320
2023/06/28 11:03:33.584, True, 2.022, 0.128634
2023/06/28 11:03:34.088, True, 1.990, 0.128099
2023/06/28 11:03:34.592, True, 1.990, 0.127871
2023/06/28 11:03:35.088, True, 2.022, 0.126421
2023/06/28 11:03:35.592, True, 1.989, 0.127184
2023/06/28 11:03:36.096, True, 1.990, 0.127947
2023/06/28 11:03:36.600, True, 1.659, 0.129015
2023/06/28 11:03:37.096, True, 2.020, 0.128023
2023/06/28 11:03:37.600, True, 1.990, 0.128023
2023/06/28 11:03:38.096, True, 2.022, 0.128405
2023/06/28 11:03:38.600, True, 1.990, 0.128634
2023/06/28 11:03:39.104, True, 1.989, 0.129397
2023/06/28 11:03:39.600, True, 1.685, 0.129854
2023/06/28 11:03:40.104, True, 1.990, 0.128176
2023/06/28 11:03:40.608, True, 1.990, 0.125734
2023/06/28 11:03:41.104, True, 2.022, 0.127947
2023/06/28 11:03:41.608, True, 1.990, 0.128862
2023/06/28 11:03:42.112, True, 1.990, 0.128405
2023/06/28 11:03:42.608, True, 2.021, 0.130083
2023/06/28 11:03:43.112, True, 1.990, 0.127031
2023/06/28 11:03:43.616, True, 1.990, 0.126192
2023/06/28 11:03:44.112, True, 2.022, 0.129244
2023/06/28 11:03:44.616, True, 1.659, 0.128099
2023/06/28 11:03:45.120, True, 1.988, 0.127489
2023/06/28 11:03:45.616, True, 2.025, 0.128786
2023/06/28 11:03:46.120, True, 1.986, 0.127947
2023/06/28 11:03:46.616, True, 2.022, 0.127794
2023/06/28 11:03:47.120, True, 1.990, 0.128328
2023/06/28 11:03:47.624, True, 2.321, 0.128481
2023/06/28 11:03:48.128, True, 1.990, 0.129702
2023/06/28 11:03:48.624, True, 2.022, 0.127108
2023/06/28 11:03:49.128, True, 1.658, 0.127489
2023/06/28 11:03:49.632, True, 1.990, 0.126879
2023/06/28 11:03:50.128, True, 2.022, 0.128023
2023/06/28 11:03:50.632, True, 1.990, 0.128862
2023/06/28 11:03:51.136, True, 1.989, 0.128252
2023/06/28 11:03:51.632, True, 2.022, 0.127642
2023/06/28 11:03:52.136, True, 1.989, 0.126574
2023/06/28 11:03:52.640, True, 1.993, 0.129168
2023/06/28 11:03:53.136, True, 2.019, 0.127260
2023/06/28 11:03:53.639, True, 1.991, 0.129549
2023/06/28 11:03:54.143, True, 1.989, 0.126955
2023/06/28 11:03:54.640, True, 2.021, 0.127947
2023/06/28 11:03:55.143, True, 1.989, 0.127871
2023/06/28 11:03:55.648, True, 1.991, 0.128176
2023/06/28 11:03:56.151, True, 1.990, 0.130541
2023/06/28 11:03:56.647, True, 2.020, 0.129091
2023/06/28 11:03:57.152, True, 1.990, 0.127642
2023/06/28 11:03:57.655, True, 1.989, 0.126650
2023/06/28 11:03:58.152, True, 2.022, 0.127947
2023/06/28 11:03:58.656, True, 1.991, 0.128939
2023/06/28 11:03:59.160, True, 1.988, 0.129397
2023/06/28 11:03:59.655, True, 1.685, 0.126497
2023/06/28 11:04:00.160, True, 1.990, 0.127565
2023/06/28 11:04:00.663, True, 1.990, 0.128023
2023/06/28 11:04:01.159, True, 2.021, 0.128023
2023/06/28 11:04:01.664, True, 1.992, 0.127489
2023/06/28 11:04:02.167, True, 1.656, 0.126192
2023/06/28 11:04:02.664, True, 2.022, 0.127871
2023/06/28 11:04:03.168, True, 1.992, 0.128405
2023/06/28 11:04:03.671, True, 1.987, 0.127337
2023/06/28 11:04:04.167, True, 1.685, 0.125048
2023/06/28 11:04:04.672, True, 1.658, 0.126955
2023/06/28 11:04:05.176, True, 1.989, 0.128710
2023/06/28 11:04:05.672, True, 1.685, 0.128862
2023/06/28 11:04:06.175, True, 1.990, 0.128557
2023/06/28 11:04:06.680, True, 1.990, 0.127184
2023/06/28 11:04:07.176, True, 2.022, 0.127947
2023/06/28 11:04:07.680, True, 1.990, 0.126574
2023/06/28 11:04:08.176, True, 2.022, 0.126192
2023/06/28 11:04:08.680, True, 1.990, 0.127718
2023/06/28 11:04:09.184, True, 1.990, 0.130541
2023/06/28 11:04:09.680, True, 2.022, 0.129015
2023/06/28 11:04:10.184, True, 1.990, 0.128634
2023/06/28 11:04:10.688, True, 1.990, 0.127184
2023/06/28 11:04:11.184, True, 2.022, 0.126802
2023/06/28 11:04:11.688, True, 1.991, 0.127642